Temperature
17 17 17 17 17 16 16 16 15 15 15 14 14 14 14 14 14 14 14 14 13 13 13 13 13 13 14 14 14 14 14 13 13 13 13 12 12 12 12 11 11 10 10
18 18 17 17 17 16 16 15 15 15 14 14 14 14 14 13 13 13 14 14 13 13 13 13 13 13 13 13 13 13 14 13 13 13 13 13 12 12 11 11 11 9 9
17 17 17 17 16 15 14 14 14 13 13 13 14 14 14 14 13 13 13 13 13 13 13 13 13 12 12 12 12 12 12 13 13 13 13 12 12 12 11 11 10 9 8
16 15 15 15 15 15 14 14 14 14 13 13 13 13 13 13 13 13 13 12 13 13 13 13 13 13 12 12 12 11 11 11 11 12 12 12 12 11 11 10 10 9 8
15 15 15 15 15 14 14 13 13 12 12 13 12 12 12 12 12 12 12 12 12 12 13 13 13 12 12 12 12 11 10 10 10 10 10 11 11 11 10 10 10 9 9
15 15 14 14 14 14 13 13 12 12 12 12 11 11 12 12 12 12 12 12 12 12 12 12 12 12 12 12 12 12 11 11 11 10 10 10 10 10 10 10 9 9 8
15 14 14 14 14 13 13 13 12 12 12 11 11 11 11 12 12 12 12 12 12 12 12 12 12 12 12 12 12 11 11 11 11 11 10 10 10 10 10 10 9 9 9
14 14 13 13 13 13 13 13 12 12 12 11 11 10 10 11 11 11 12 13 14 13 13 13 13 13 12 12 12 12 11 11 10 10 9 9 10 10 10 10 9 9 9
13 13 13 13 13 13 13 13 13 12 12 12 11 10 10 10 12 12 12 12 12 12 12 12 13 13 13 12 13 12 12 11 11 10 9 9 9 9 10 10 10 9 9
13 13 12 13 13 13 13 13 13 13 12 12 12 11 11 10 10 11 12 12 11 11 11 11 12 12 12 12 12 12 12 12 12 11 11 10 9 9 9 9 9 9 10
12 12 12 12 12 12 13 13 12 12 12 12 12 11 11 11 10 10 10 11 12 12 12 11 11 11 12 11 11 12 11 11 11 11 11 10 10 10 10 10 10 10 10
12 12 12 12 11 11 11 11 12 11 11 11 11 11 11 11 11 10 10 10 11 12 12 11 11 11 12 12 12 12 12 11 11 11 11 10 10 10 10 10 10 10 10
11 11 11 11 11 11 11 11 10 11 11 11 11 10 10 11 11 11 11 11 11 11 11 12 12 13 13 13 13 13 12 12 11 11 11 10 10 10 10 10 10 10 10
10 10 10 10 11 11 11 11 10 10 10 10 10 10 10 10 10 10 10 10 11 11 11 11 11 11 12 13 14 14 12 12 12 11 11 11 10 10 10 10 10 10 9
9 9 9 9 9 9 9 9 9 10 9 9 9 9 9 9 10 10 10 9 9 10 10 10 10 11 11 12 14 14 13 13 13 12 12 11 11 10 10 10 10 10 9
8 8 8 8 8 8 8 8 8 8 7 8 8 8 8 9 9 9 9 9 9 9 9 9 10 10 10 11 12 11 11 12 12 12 12 12 11 11 10 10 9 9 9
7 7 7 6 6 6 6 5 6 6 6 6 6 6 6 7 7 7 8 8 8 8 8 8 9 9 10 10 10 10 11 11 11 11 11 12 11 11 10 10 9 9 9
6 6 6 5 5 4 4 4 4 4 4 5 5 5 5 5 5 6 6 6 7 7 7 7 8 8 9 9 10 10 10 10 10 10 11 11 11 10 10 9 9 9 8
5 5 4 4 4 3 3 3 3 3 3 3 4 4 4 4 4 5 4 5 5 6 6 6 7 7 8 8 8 9 9 9 9 9 9 10 10 10 9 9 8 8 7
4 4 3 3 3 2 2 2 2 3 3 3 3 3 3 3 3 3 3 3 4 5 5 6 7 7 7 7 8 8 8 8 8 8 8 8 9 9 8 7 7 7 6
2 2 2 2 1 1 1 2 2 2 2 2 2 2 3 3 3 2 2 2 2 3 3 4 5 6 7 7 7 7 7 7 8 8 8 7 7 7 7 6 6 6 5
2 1 1 1 1 1 1 1 1 0 1 1 1 2 2 2 1 1 2 2 1 1 2 3 3 4 5 6 6 6 6 6 6 7 7 8 6 5 5 5 4 5 5
-0 -0 -1 -1 -1 -1 -0 -0 -1 -1 -1 -1 -1 -0 0 0 -1 -0 1 1 0 -0 -0 1 2 2 3 4 5 6 6 5 6 6 6 6 5 4 4 4 3 2 2
-1 -2 -2 -2 -2 -2 -1 -1 -2 -2 -2 -2 -3 -2 -2 -2 -3 -2 -2 -2 -1 -1 -0 0 1 1 2 2 3 3 4 5 5 5 5 5 4 3 3 3 2 1 1
-2 -3 -3 -3 -3 -2 -2 -3 -3 -3 -3 -4 -4 -3 -3 -4 -4 -4 -3 -3 -2 -1 -1 0 1 1 1 2 3 3 4 4 4 4 4 4 3 2 1 1 0 0 -1
-3 -3 -3 -3 -3 -4 -4 -4 -4 -5 -5 -5 -5 -5 -4 -4 -4 -4 -4 -3 -2 -1 -1 -1 -0 1 1 2 2 3 3 3 3 3 3 3 1 -0 -1 -1 -1 -2 -3
Wind_Speed
7 5 4 7 8 9 7 4 5 5 7 8 10 9 7 9 12 12 14 20 24 28 28 27 27 28 28 27 27 27 27 26 26 26 25 25 24 23 22 22 21 21 20
8 9 8 8 7 8 7 6 7 8 8 8 9 8 7 8 11 12 13 17 22 27 29 30 30 30 30 30 30 29 28 28 28 28 28 27 26 26 26 25 24 23 23
11 9 8 8 6 7 8 6 6 5 6 7 10 10 9 8 10 10 12 13 15 21 27 31 30 29 30 31 32 32 30 29 29 29 29 29 28 28 28 27 26 26 26
11 5 7 7 5 7 6 7 8 8 8 9 10 9 9 9 11 10 10 11 11 13 19 27 30 31 31 32 34 34 31 29 30 31 31 31 31 30 30 29 28 27 28
12 7 8 8 7 7 8 8 8 7 9 10 10 9 9 9 11 11 12 11 12 14 15 19 24 29 31 32 34 35 33 30 30 31 31 33 33 32 32 31 30 29 30
12 9 10 11 8 8 8 7 10 9 10 9 8 11 10 10 11 12 13 12 11 13 14 15 15 18 26 31 33 35 34 33 31 31 32 32 33 34 33 33 32 31 32
10 9 10 11 9 11 13 11 10 11 10 5 5 10 12 11 14 14 12 13 15 13 11 12 12 12 13 21 28 32 35 35 34 34 33 33 33 34 34 34 33 32 32
8 10 11 11 10 10 12 12 10 10 10 7 8 8 8 11 12 12 13 15 15 13 13 13 13 11 8 9 15 25 30 34 36 36 35 34 34 35 35 35 34 32 32
8 11 12 12 12 10 12 13 12 13 14 12 12 10 6 6 4 6 8 11 12 12 12 13 14 15 11 10 11 15 23 28 34 37 37 34 33 34 35 35 34 34 32
7 8 11 12 12 10 12 13 13 13 15 13 11 14 16 13 9 10 10 9 9 12 12 12 13 15 13 11 11 15 19 24 30 33 34 35 34 34 36 35 34 34 31
8 8 8 8 9 10 12 13 13 13 13 14 13 12 13 14 18 16 15 15 12 12 12 13 14 13 13 12 12 15 21 26 29 30 32 33 34 35 35 34 33 33 30
7 11 11 10 8 8 10 12 13 13 13 14 14 14 13 11 12 15 15 16 17 16 14 13 15 14 13 14 16 20 21 26 29 30 31 32 33 33 34 34 33 33 31
6 10 10 10 10 10 10 10 10 12 14 15 15 14 14 15 15 16 18 18 18 15 14 14 14 14 15 14 14 19 20 25 27 30 32 33 31 29 30 31 33 32 31
6 9 10 10 11 11 11 10 9 10 11 12 14 14 13 14 14 16 17 18 21 20 17 17 14 13 14 14 17 21 17 22 26 29 32 32 29 27 26 28 28 29 28
9 12 11 11 12 11 11 11 10 11 10 10 11 12 11 12 12 12 13 15 19 23 21 18 13 16 13 13 18 15 13 20 25 28 29 30 29 27 25 26 27 27 26
11 12 13 14 14 13 13 13 12 13 13 13 12 13 13 12 12 11 11 12 14 18 23 19 16 13 11 9 14 14 15 21 24 29 29 29 29 28 27 25 23 22 20
12 12 13 13 13 13 13 13 14 15 14 14 13 14 14 14 12 12 11 12 12 14 20 20 14 14 13 10 10 10 11 12 15 25 30 30 30 29 26 23 25 24 22
13 14 14 14 14 14 14 14 15 14 13 16 16 15 15 14 15 14 13 13 14 15 17 21 18 12 13 11 12 12 11 11 10 17 24 28 28 27 24 23 24 22 21
14 15 15 16 16 15 15 15 14 13 15 15 15 14 13 14 15 14 15 14 14 15 15 18 20 14 12 10 7 10 10 8 8 12 17 21 23 24 25 26 24 21 20
15 15 16 17 17 16 17 15 15 17 15 15 13 11 11 13 15 17 15 15 16 17 16 17 18 15 14 8 4 8 9 6 7 4 8 12 15 20 22 23 22 17 16
15 15 16 17 17 15 16 19 20 20 20 16 10 10 10 14 18 17 17 17 17 16 15 15 16 15 13 8 7 6 9 8 7 8 7 8 9 12 18 20 18 20 18
16 16 16 17 17 16 23 28 26 22 18 14 14 15 15 16 16 24 26 24 23 22 19 16 16 17 17 15 11 10 10 10 6 6 7 8 8 8 9 11 18 21 21
15 15 15 16 17 18 26 31 29 17 15 15 15 17 18 16 16 19 24 27 26 28 25 20 19 20 19 19 18 14 11 13 12 4 9 6 7 7 6 10 20 17 17
13 14 15 16 16 18 28 29 25 17 15 14 14 16 17 14 16 22 21 22 23 23 22 18 17 20 20 20 19 19 17 11 5 1 6 4 6 5 6 9 17 16 16
14 14 14 15 16 18 25 26 26 16 15 16 16 17 17 17 24 30 24 23 25 23 21 24 24 26 29 29 23 17 13 9 7 3 2 4 3 3 3 3 6 14 18
14 15 16 15 17 18 22 29 28 14 14 14 14 15 21 25 31 34 25 23 22 22 21 21 20 20 19 17 16 12 12 12 7 4 6 6 3 4 3 3 3 2 7
Wind_Direction
224 219 219 221 221 221 222 224 229 236 241 242 240 236 238 239 239 243 245 244 238 235 237 237 235 234 232 232 233 233 233 232 232 234 235 236 237 238 238 240 242 246 247
222 222 223 225 229 226 227 230 232 233 237 241 246 240 239 242 240 241 243 245 239 234 235 238 240 240 240 239 238 237 235 234 235 235 237 238 239 240 242 242 242 245 247
224 227 232 236 239 234 238 242 248 247 248 244 247 244 240 239 242 244 243 242 240 238 237 240 243 245 245 245 244 242 238 235 235 237 238 240 240 239 240 242 244 245 248
227 229 240 244 228 224 223 230 233 236 239 239 245 244 245 246 246 245 244 240 237 236 239 241 242 245 246 246 248 248 245 241 238 237 238 240 241 242 242 243 244 246 249
220 215 232 236 224 227 234 239 245 237 252 251 251 253 248 248 249 249 245 239 236 235 238 242 242 244 246 247 249 251 252 248 245 243 241 241 242 242 242 242 243 244 247
222 220 238 243 230 233 243 234 244 242 248 255 257 259 255 249 251 251 249 246 242 238 239 243 244 246 246 246 248 249 251 251 250 250 248 246 245 244 242 242 242 243 245
228 226 239 245 233 237 244 237 237 246 249 228 242 265 261 252 252 253 251 250 250 247 244 243 244 247 248 244 244 246 248 249 250 251 251 250 249 247 244 242 241 243 244
238 239 241 247 242 240 248 245 238 246 251 222 229 262 272 269 252 245 243 246 250 249 247 242 243 244 241 239 239 240 242 247 250 254 255 253 251 249 246 243 240 241 241
254 252 252 251 249 238 244 244 234 236 250 247 227 232 251 253 286 261 244 245 246 244 246 247 241 242 238 236 239 237 240 244 250 255 257 255 253 249 245 243 240 239 238
282 270 266 263 257 248 247 247 244 238 244 252 244 232 241 252 259 276 263 251 243 246 242 242 242 242 236 233 234 235 238 240 248 252 253 253 251 248 246 243 239 238 237
351 342 320 298 280 268 261 259 255 248 245 247 250 249 245 249 251 257 269 271 261 248 241 238 242 242 236 232 232 236 236 241 247 251 251 249 247 245 244 241 239 238 236
356 1 357 350 332 311 294 283 275 267 263 258 258 257 257 252 251 253 257 262 265 266 257 239 237 236 233 228 228 230 230 237 244 247 248 248 247 244 242 243 241 239 233
351 350 351 350 347 339 330 319 303 291 284 282 279 275 270 267 268 269 267 270 270 270 265 254 244 237 236 229 230 228 229 234 239 243 245 246 245 243 241 243 242 239 231
338 337 339 340 337 335 333 330 320 307 300 295 291 288 288 284 278 273 275 280 282 279 271 266 260 248 241 236 232 229 229 235 239 241 242 243 243 241 238 239 237 234 228
344 341 337 332 328 325 324 322 319 313 309 301 296 292 293 293 290 283 277 275 280 286 284 277 268 256 243 233 230 227 224 236 235 237 237 236 237 234 232 233 233 226 216
341 337 334 331 326 323 321 319 315 313 309 307 306 304 300 297 297 292 284 280 277 281 286 285 279 268 258 236 230 223 222 231 231 232 233 231 228 228 226 225 222 210 199
338 335 331 327 324 321 320 317 314 312 313 314 313 309 305 305 306 303 299 295 291 288 288 291 288 280 266 246 243 238 235 236 239 234 232 228 223 222 220 211 192 188 192
341 338 335 332 329 326 322 317 312 315 321 317 313 309 309 315 312 310 306 301 299 296 291 291 291 284 273 254 243 247 247 243 245 247 240 232 221 216 211 193 184 180 187
339 338 336 332 328 325 324 318 312 320 316 310 306 306 309 312 310 310 310 308 305 299 293 288 287 287 281 271 252 256 262 263 253 247 245 237 224 215 208 191 185 180 182
337 336 334 330 326 325 325 320 324 320 313 307 299 296 301 309 311 311 309 307 305 301 300 295 287 283 280 276 239 265 268 254 254 259 261 251 229 215 206 187 174 176 179
334 332 330 328 325 325 323 323 325 321 314 303 294 294 297 303 299 308 317 313 313 312 308 307 303 297 284 272 269 260 260 261 230 222 225 230 214 201 185 179 173 168 175
331 330 328 325 325 324 320 321 322 320 318 318 320 322 317 312 313 324 316 313 314 310 307 306 302 299 297 291 279 270 275 269 252 202 210 227 196 190 172 169 172 171 175
324 324 321 321 320 318 317 319 322 331 326 322 323 323 318 316 326 321 316 316 315 308 303 298 295 292 296 299 297 282 276 274 266 195 182 197 172 173 150 155 158 170 188
322 319 318 319 316 316 314 320 332 334 322 318 319 317 311 315 320 318 318 316 312 306 297 286 280 284 284 287 288 291 287 281 309 243 157 163 173 171 155 161 169 182 201
316 314 316 315 314 313 316 324 329 327 323 322 320 314 311 312 313 318 318 310 306 302 297 287 276 277 277 278 278 278 273 251 248 239 161 118 130 98 103 113 159 191 206
312 314 311 311 310 311 314 321 323 322 316 314 312 312 313 314 316 316 313 305 302 309 316 316 306 293 286 284 287 278 266 255 233 210 190 142 131 128 112 70 85 214 219
Height
1497 1497 1496 1495 1494 1493 1492 1491 1489 1488 1487 1486 1485 1484 1483 1483 1483 1483 1482 1482 1482 1481 1481 1480 1478 1478 1477 1476 1476 1477 1476 1476 1476 1477 1477 1476 1475 1474 1474 1473 1473 1473 1472
1494 1494 1492 1491 1490 1490 1489 1488 1487 1485 1483 1483 1481 1480 1480 1480 1479 1478 1477 1476 1475 1474 1473 1472 1471 1471 1471 1470 1469 1469 1469 1469 1470 1470 1470 1470 1470 1469 1469 1468 1467 1467 1467
1491 1490 1489 1488 1488 1487 1487 1485 1483 1482 1480 1479 1477 1476 1475 1474 1472 1472 1471 1469 1468 1467 1466 1465 1465 1465 1464 1463 1462 1461 1461 1461 1462 1462 1462 1462 1463 1462 1462 1462 1462 1462 1462
1489 1489 1487 1485 1484 1483 1482 1479 1477 1476 1474 1472 1470 1470 1469 1468 1466 1465 1463 1462 1461 1460 1459 1457 1457 1456 1455 1454 1454 1454 1454 1454 1454 1453 1452 1453 1454 1454 1454 1454 1454 1455 1456
1486 1485 1483 1481 1480 1479 1477 1475 1473 1472 1469 1466 1465 1464 1463 1461 1459 1457 1454 1452 1451 1450 1448 1447 1447 1446 1445 1445 1445 1446 1446 1446 1446 1445 1444 1443 1444 1444 1445 1446 1446 1446 1447
1482 1480 1478 1476 1475 1472 1470 1469 1467 1466 1464 1462 1460 1457 1455 1452 1451 1448 1444 1443 1441 1440 1438 1436 1435 1434 1434 1434 1434 1435 1435 1435 1436 1436 1436 1435 1435 1435 1435 1435 1436 1437 1438
1477 1474 1471 1469 1467 1465 1462 1460 1460 1459 1457 1456 1453 1449 1446 1444 1441 1438 1436 1434 1432 1430 1429 1427 1426 1424 1422 1422 1423 1423 1423 1423 1424 1424 1424 1424 1424 1424 1424 1425 1425 1427 1428
1472 1469 1467 1465 1462 1459 1456 1455 1454 1452 1449 1449 1447 1443 1438 1434 1429 1428 1426 1423 1421 1420 1416 1415 1416 1415 1412 1410 1409 1410 1411 1411 1411 1411 1411 1410 1411 1412 1412 1413 1414 1416 1418
1467 1465 1462 1459 1456 1453 1451 1449 1447 1445 1443 1441 1439 1438 1432 1424 1422 1420 1419 1417 1415 1412 1409 1407 1404 1404 1402 1401 1398 1397 1396 1398 1399 1398 1398 1398 1399 1400 1401 1402 1403 1405 1408
1462 1460 1457 1454 1451 1448 1445 1443 1442 1438 1436 1432 1431 1427 1424 1421 1417 1411 1409 1408 1407 1404 1401 1399 1398 1395 1392 1390 1389 1388 1386 1386 1387 1387 1386 1387 1387 1389 1392 1393 1394 1396 1399
1460 1456 1453 1450 1446 1443 1440 1438 1436 1434 1430 1426 1422 1419 1415 1411 1408 1405 1398 1395 1393 1392 1390 1388 1386 1384 1381 1380 1377 1376 1376 1376 1376 1376 1376 1376 1377 1378 1381 1384 1385 1386 1388
1458 1455 1451 1448 1444 1440 1437 1434 1431 1428 1425 1421 1417 1414 1410 1406 1401 1398 1391 1386 1382 1380 1378 1375 1373 1371 1370 1369 1366 1363 1364 1365 1365 1365 1366 1367 1368 1368 1370 1373 1374 1376 1377
1456 1452 1449 1445 1441 1437 1433 1429 1426 1422 1419 1415 1412 1409 1405 1400 1397 1392 1385 1378 1374 1369 1367 1364 1362 1360 1360 1357 1356 1355 1353 1352 1352 1352 1354 1356 1358 1358 1360 1362 1364 1366 1367
1454 1450 1445 1441 1437 1433 1429 1424 1420 1416 1412 1408 1404 1400 1396 1392 1389 1386 1381 1374 1364 1359 1357 1354 1354 1352 1350 1349 1348 1345 1342 1342 1341 1340 1341 1344 1346 1348 1349 1350 1352 1355 1358
1450 1446 1441 1436 1431 1427 1423 1418 1413 1410 1405 1400 1395 1391 1387 1383 1380 1376 1372 1368 1363 1351 1343 1343 1343 1341 1338 1335 1333 1333 1331 1331 1331 1330 1330 1332 1333 1336 1338 1340 1340 1343 1346
1446 1441 1436 1431 1426 1421 1416 1411 1407 1402 1398 1393 1389 1384 1379 1375 1370 1366 1361 1358 1354 1349 1335 1331 1330 1330 1328 1323 1322 1320 1317 1318 1317 1318 1319 1319 1320 1322 1325 1326 1329 1331 1333
1440 1435 1429 1424 1420 1416 1411 1406 1400 1396 1391 1386 1382 1378 1372 1367 1362 1357 1353 1349 1343 1339 1329 1318 1320 1318 1316 1313 1310 1308 1306 1305 1304 1303 1306 1307 1306 1308 1311 1313 1315 1318 1321
1434 1429 1424 1418 1413 1409 1405 1401 1395 1390 1385 1380 1375 1370 1365 1360 1355 1351 1346 1341 1336 1331 1325 1314 1306 1304 1302 1300 1297 1296 1294 1293 1291 1291 1292 1294 1293 1294 1298 1300 1303 1305 1309
1429 1424 1420 1415 1409 1403 1399 1395 1391 1385 1380 1374 1369 1364 1359 1354 1349 1345 1340 1333 1327 1322 1317 1309 1298 1294 1290 1289 1286 1283 1281 1279 1277 1278 1279 1281 1280 1282 1285 1286 1290 1293 1295
1424 1419 1415 1410 1405 1399 1395 1391 1386 1380 1373 1368 1364 1359 1353 1349 1344 1339 1333 1327 1320 1314 1308 1301 1292 1285 1281 1279 1276 1273 1268 1266 1265 1266 1268 1269 1267 1269 1272 1273 1275 1282 1284
1421 1415 1410 1404 1400 1395 1391 1387 1381 1374 1366 1360 1356 1352 1347 1342 1337 1334 1329 1321 1313 1307 1300 1294 1287 1280 1273 1268 1266 1264 1258 1255 1252 1254 1254 1254 1256 1255 1256 1262 1263 1265 1272
1417 1411 1406 1401 1395 1389 1385 1381 1376 1368 1362 1356 1350 1345 1340 1334 1331 1326 1319 1313 1308 1302 1294 1287 1281 1275 1269 1265 1260 1256 1252 1248 1240 1240 1241 1241 1241 1243 1243 1245 1249 1253 1258
1413 1407 1402 1397 1389 1385 1380 1375 1370 1363 1358 1352 1345 1339 1333 1329 1323 1317 1309 1301 1296 1291 1288 1282 1273 1264 1260 1257 1253 1248 1242 1241 1234 1230 1229 1229 1231 1232 1235 1237 1241 1248 1254
1408 1404 1397 1391 1385 1380 1376 1371 1364 1357 1350 1345 1339 1334 1328 1321 1317 1311 1301 1291 1284 1279 1275 1269 1264 1256 1251 1246 1243 1239 1235 1230 1226 1221 1218 1217 1218 1221 1223 1227 1232 1240 1246
1404 1398 1392 1386 1379 1374 1371 1366 1359 1350 1344 1338 1333 1327 1321 1315 1310 1305 1296 1286 1277 1268 1263 1258 1252 1245 1240 1235 1231 1226 1222 1218 1212 1209 1207 1209 1210 1212 1215 1219 1225 1232 1240
1399 1393 1387 1381 1374 1369 1365 1360 1354 1347 1339 1333 1327 1321 1316 1309 1302 1296 1290 1281 1271 1263 1255 1245 1239 1234 1228 1223 1219 1214 1210 1206 1201 1198 1196 1199 1202 1205 1209 1213 1220 1228 1236